Theta_e
322 321 317 318 317 319 324 326 317 311 310 315 315 319 317 317 324 324 315 321 327 329 330 330 331 330 329 330 332 335 337 338 339 340 340 341 342 343
320 318 317 317 318 320 320 322 322 314 310 313 316 316 319 323 325 322 322 328 324 327 328 328 329 329 329 328 330 331 332 334 334 333 333 334 334 335
319 315 315 314 315 316 316 317 320 314 311 313 314 316 317 318 320 319 323 318 312 323 328 326 326 326 326 327 327 327 328 329 330 330 329 329 328 328
318 314 315 317 312 312 314 313 314 312 310 311 313 315 316 317 319 315 318 323 317 323 326 327 325 324 322 321 321 322 322 323 323 325 327 327 326 324
316 314 318 315 313 313 313 313 313 314 313 313 312 313 313 313 313 315 315 314 319 326 325 325 326 326 324 322 320 319 318 318 318 319 320 322 324 322
318 318 318 316 315 315 314 313 313 314 312 312 312 312 312 312 311 309 307 311 314 317 319 321 322 324 325 325 325 324 321 318 316 316 316 316 317 318
318 319 318 322 326 319 318 318 314 312 312 312 311 311 310 306 305 309 305 307 310 310 310 309 306 306 308 313 320 324 322 321 320 317 315 315 315 317
317 319 321 332 330 332 330 327 319 314 311 312 310 310 309 307 306 307 305 304 303 308 309 308 305 302 305 305 321 321 320 319 319 320 317 316 316 316
319 319 321 321 327 324 329 330 328 328 323 315 313 312 309 308 305 304 304 303 304 307 304 302 303 302 304 306 317 320 319 317 316 316 318 317 316 316
319 319 316 315 316 316 313 315 318 320 320 318 316 315 310 309 308 307 306 305 304 305 302 298 301 301 303 304 314 317 318 315 314 314 314 313 311 311
321 319 316 312 317 320 309 309 310 312 321 324 321 322 321 318 314 309 306 303 301 302 304 300 299 300 301 303 305 314 314 312 311 311 312 311 308 309
323 320 323 315 319 319 311 310 309 310 317 315 316 318 320 319 323 311 308 303 301 300 302 301 299 300 300 301 302 304 303 308 308 308 308 309 307 305
322 318 317 318 316 316 318 318 316 316 319 310 309 310 310 310 313 312 311 307 303 303 306 304 300 300 300 300 301 302 301 301 301 302 305 306 306 307
319 321 319 316 313 315 318 320 320 321 313 312 311 311 312 314 314 312 310 311 309 308 308 306 303 302 300 299 299 302 302 301 299 300 302 306 308 309
317 319 318 313 312 314 318 319 319 313 311 309 309 309 313 317 316 315 313 311 310 311 314 308 306 305 303 302 300 300 299 300 299 298 301 303 306 305
321 320 320 318 316 317 315 318 314 311 311 310 309 310 312 312 313 313 311 311 310 309 308 309 309 308 303 302 300 299 297 297 299 299 300 303 304 304
317 319 317 315 315 313 311 312 313 310 309 308 309 312 312 313 311 310 308 309 305 303 305 304 304 306 306 302 298 296 296 297 298 298 300 300 303 304
318 318 318 316 316 316 313 310 310 311 309 309 308 311 312 312 312 311 311 309 304 304 304 301 299 299 297 297 306 299 295 295 297 299 299 299 300 304
319 319 318 318 317 316 316 315 311 310 309 308 308 309 311 312 315 313 311 309 305 305 304 299 298 297 293 291 296 308 298 296 298 299 298 298 299 302
319 319 319 319 319 318 317 316 314 311 309 310 309 311 312 314 314 312 309 306 304 303 300 298 298 296 294 294 294 297 304 297 298 298 298 299 301 307
317 319 320 320 320 319 318 316 315 312 313 313 313 313 314 316 315 313 308 305 304 302 300 297 297 304 297 295 293 295 298 305 303 299 298 297 297 298
320 321 320 320 320 319 317 317 314 311 311 312 312 313 314 316 315 310 309 305 304 303 299 296 297 296 293 293 293 294 296 299 304 308 308 305 299 295
322 322 322 321 322 320 317 315 314 314 312 313 313 313 314 312 312 310 311 306 304 299 297 296 295 294 293 293 295 295 295 297 297 298 300 308 309 310
Wind_Speed
2 3 1 2 2 3 3 7 6 4 4 2 1 2 2 2 4 1 3 7 7 9 9 9 9 11 13 15 17 19 23 25 26 21 16 12 8 10
2 4 2 0 2 2 3 4 3 5 3 2 4 1 1 2 4 1 4 5 5 6 8 9 10 10 11 14 15 15 16 16 16 14 10 9 7 10
3 5 3 2 2 2 2 2 3 3 4 1 1 1 2 2 3 4 3 2 2 4 5 7 8 9 11 11 11 12 13 12 10 9 9 8 8 8
6 5 5 3 3 2 2 3 3 2 4 5 1 1 1 1 1 2 3 3 2 4 5 5 5 5 7 8 9 10 10 9 9 8 7 7 7 6
6 6 6 6 4 2 3 4 3 3 4 5 3 1 2 2 3 3 4 4 3 8 9 9 7 3 4 5 6 6 6 5 4 3 2 2 1 1
6 6 7 5 5 5 4 6 5 5 4 4 3 2 2 2 3 2 3 4 4 5 7 8 9 10 10 7 6 7 7 7 7 6 5 5 5 5
5 6 5 7 8 7 5 5 6 4 4 3 3 1 1 2 2 2 2 2 2 3 2 4 4 5 6 9 8 9 9 9 9 9 8 7 7 7
6 5 4 7 7 8 6 12 12 8 5 4 3 3 2 3 1 1 1 3 3 2 2 3 3 3 2 2 8 9 9 11 10 6 8 9 9 10
7 6 5 4 7 6 7 7 9 11 12 8 7 5 4 6 5 2 1 1 2 3 2 2 2 3 2 4 8 9 8 9 9 9 7 7 9 10
9 7 6 6 7 7 6 6 4 6 7 4 6 7 4 6 5 5 5 2 1 2 1 1 2 2 3 4 9 9 8 9 11 11 9 8 7 8
11 17 9 8 10 11 7 6 5 1 4 9 5 8 10 11 8 5 2 3 2 2 2 2 2 3 2 4 5 10 10 11 12 13 11 10 9 7
4 9 19 14 14 13 8 8 7 6 4 5 3 3 6 7 11 3 5 3 2 2 3 1 1 2 5 2 3 4 5 7 12 10 11 11 8 3
8 6 6 15 15 15 10 7 8 7 7 5 4 3 3 4 4 4 5 5 3 3 3 2 1 0 1 4 3 3 2 4 4 6 10 10 9 4
11 8 7 13 15 16 11 11 9 8 5 5 3 3 4 4 5 5 6 5 4 5 3 4 2 3 2 2 4 4 4 4 2 4 4 6 4 4
7 9 11 16 15 12 14 12 11 5 6 4 4 4 4 3 4 3 3 4 5 4 4 6 5 4 3 3 3 3 4 4 3 3 5 4 3 2
7 7 10 13 14 11 7 7 6 6 7 6 5 3 2 3 3 3 3 2 0 4 4 5 6 5 2 4 3 4 3 3 4 4 4 4 4 3
8 6 6 4 7 7 6 7 5 5 5 5 4 4 3 3 3 3 2 3 3 2 3 2 2 3 4 4 3 4 4 3 4 4 3 4 5 4
9 9 10 10 10 10 10 9 8 9 6 5 4 4 4 4 3 3 3 3 4 2 2 2 1 3 4 4 11 5 2 3 3 3 2 2 5 6
11 11 10 11 12 11 10 10 9 9 7 6 6 5 5 4 4 3 4 3 3 3 3 2 2 3 1 2 5 8 3 3 3 4 3 4 4 7
11 12 12 11 11 12 11 10 8 7 7 7 6 5 5 5 3 4 4 5 4 3 1 1 2 4 5 4 3 5 9 4 3 3 4 3 5 7
13 13 11 11 10 10 9 8 8 8 8 7 7 5 5 4 5 5 5 7 5 3 3 3 4 7 3 2 2 4 5 12 10 5 3 2 3 4
13 13 12 10 11 10 9 8 8 7 8 7 5 6 6 6 6 6 6 5 5 5 4 2 2 3 2 4 4 3 4 5 5 11 16 10 4 3
14 14 11 12 12 11 10 9 9 9 8 8 7 6 6 6 5 5 5 5 4 4 4 3 2 2 2 4 3 2 3 4 3 5 6 6 9 13
Wind_Direction
128 126 86 355 76 128 156 165 138 146 228 250 160 238 269 291 290 303 328 326 12 23 22 19 36 40 30 27 30 39 56 59 68 60 69 60 62 69
128 128 110 36 43 56 127 135 122 135 143 194 230 250 326 309 296 331 286 285 345 8 16 17 19 33 43 37 32 37 51 77 90 105 100 101 107 93
135 131 130 127 101 89 91 112 132 116 124 263 278 10 18 14 347 345 308 250 304 323 355 13 16 19 25 37 42 41 44 53 71 87 94 98 90 88
167 142 153 149 132 115 123 152 153 160 129 137 142 54 89 323 276 7 4 28 337 339 344 341 335 7 22 25 27 31 40 44 46 52 64 74 79 82
176 166 169 161 167 161 146 133 117 103 78 116 128 68 45 15 31 350 16 7 31 35 25 28 25 355 358 357 355 1 3 359 358 20 35 55 80 99
177 177 170 176 164 153 139 133 122 105 99 103 85 91 80 5 65 60 17 21 17 9 29 43 50 49 46 22 359 341 315 279 265 257 253 249 262 279
181 175 186 170 179 180 147 139 123 106 113 101 96 95 68 39 66 322 56 336 27 9 11 13 13 18 17 20 23 12 352 330 277 239 230 238 252 262
180 184 180 171 165 179 172 166 162 141 144 139 150 145 182 165 167 101 61 35 348 14 44 338 32 18 344 3 8 5 359 354 8 292 246 229 229 239
174 167 170 170 163 169 163 165 178 180 171 157 154 177 175 182 143 93 75 106 233 297 74 330 2 4 319 327 339 351 352 349 351 354 333 268 251 252
162 173 185 176 172 158 152 128 133 147 145 146 150 170 164 154 137 150 165 147 294 295 86 71 342 285 316 293 303 321 330 342 340 337 329 329 332 269
186 161 179 184 189 165 148 146 136 144 103 115 146 161 156 156 153 122 92 81 331 292 327 122 298 296 305 295 307 319 326 340 326 322 321 324 320 319
229 244 172 169 176 169 156 160 160 187 154 104 91 125 155 177 175 168 150 140 195 327 240 149 343 1 334 294 305 308 323 325 316 318 319 313 313 297
193 195 204 181 169 172 164 169 187 156 167 155 161 164 172 188 215 203 188 150 169 236 236 123 153 25 201 303 304 296 344 314 326 318 322 326 332 207
199 196 184 189 174 171 171 194 182 157 141 150 172 200 207 206 221 216 203 212 222 204 136 153 216 181 174 295 280 330 321 312 286 304 313 319 330 29
186 177 165 186 177 170 181 188 158 149 150 144 195 218 220 187 138 159 200 229 245 253 210 198 193 177 175 223 273 299 337 305 306 297 310 319 292 328
164 163 188 189 180 175 164 184 179 167 170 166 187 220 201 143 161 165 172 171 188 293 237 201 195 184 185 234 178 278 242 281 315 307 292 295 301 257
155 146 152 185 184 171 178 188 191 163 164 165 176 194 200 162 163 136 189 176 190 237 297 330 108 168 217 217 280 237 275 286 271 287 338 314 294 281
174 185 187 185 193 193 189 190 189 185 187 172 188 182 194 194 183 174 176 181 201 228 244 247 64 30 5 301 206 257 276 254 283 286 246 252 286 291
191 194 200 194 189 191 193 192 188 190 176 182 190 191 190 205 165 201 184 175 228 225 234 183 135 118 89 257 289 215 227 255 291 303 237 211 250 283
194 197 200 188 189 196 192 192 184 167 181 183 186 184 191 193 158 211 187 183 199 201 222 181 170 170 172 212 234 272 204 229 223 270 289 286 249 286
213 207 201 194 189 184 187 185 185 182 182 173 189 176 181 180 196 208 183 178 177 169 199 218 221 170 126 83 327 289 292 222 224 222 250 260 288 314
209 213 195 187 181 181 167 165 195 183 180 179 178 177 188 192 198 189 182 169 194 186 201 191 146 102 118 185 236 255 293 310 267 243 229 206 197 261
205 203 197 191 190 182 165 169 188 200 183 182 182 192 185 188 190 181 166 180 162 167 172 173 129 111 203 202 209 263 267 283 301 324 312 214 253 266